Regional Weather Roundup
Issued by NWS Sterling, VA

Home | Current Version | Previous Version | Graphics & Text | Print | Product List | Glossary On
Versions: 1 2 3 4 5 6 7 8 9 10 11 12 13 14 15 16 17 18 19 20 21 22 23 24 25 26 27 28 29 30 31 32 33 34 35 36 37 38 39 40 41 42 43 44 45 46 47 48 49 50
502
ASUS41 KLWX 181111
RWRLWX

REGIONAL WEATHER ROUNDUP
NATIONAL WEATHER SERVICE BALTIMORE MD/WASHINGTON DC
600 AM EST SAT FEB 18 2017

Note: "FAIR" indicates few or no clouds below 12,000 feet
with no significant weather and/or obstructions to visibility.
 TC=TEMPERATURE CELSIUS

 * =Non NWS site. Station does not report precipitation (e.g. rain,
    snow, etc.), thunder, or fog.

DCZ001-MDZ009-015-VAZ040>042-051-053>054-181200-
WASHINGTON METRO

CITY           SKY/WX    TMP DP  RH WIND       PRES   REMARKS
WASHINGTON NAT CLEAR     33  28  81 W5        29.90R
DULLES         CLOUDY    26  21  81 S3        29.89R
ANDREWS AFB    CLEAR     29  25  84 CALM      29.87S
FT BELVOIR     CLEAR     27  23  85 CALM      29.90R
QUANTICO       CLEAR     31  28  89 W6        29.92S
COLLEGE PARK*  CLOUDY    28  23  80 CALM      29.88R
LEESBURG*      CLOUDY    30  27  86 MISG      29.90R
MANASSAS*      CLOUDY    26  22  84 S3        29.91S
GAITHERSBURG*  CLOUDY    28  21  74 CALM      29.90S

$$

MDZ006>007-011-014-181200-
BALTIMORE METRO

CITY           SKY/WX    TMP DP  RH WIND       PRES   REMARKS
BWI AIRPORT    CLOUDY    29  24  82 CALM      29.85F
MD SCIENCE CTR   N/A     36  24  62 MISG      29.86F
MARTIN STATE   CLEAR     28  27  93 CALM      29.89
ANNAPOLIS      CLEAR     33  30  88 CALM      29.86F
FORT MEADE*    CLOUDY    27  23  86 CALM      29.90S

$$

MDZ012-015-019>023-181200-
MARYLAND EASTERN SHORE

CITY           SKY/WX    TMP DP  RH WIND       PRES   REMARKS
OCEAN CITY     CLEAR     36  34  92 CALM      29.89F FOG
SALISBURY      CLEAR     30  30 100 CALM      29.89S
BAY BRIDGE AP* PTCLDY    30  27  86 CALM      29.87F
CAMBRIDGE*     CLEAR     30  28  93 CALM      29.87F
EASTON*        CLEAR     32  27  81 CALM      29.90F

$$

MDZ017>025-181200-
SOUTHERN MARYLAND

CITY           SKY/WX    TMP DP  RH WIND       PRES   REMARKS
PATUXENT RIVER CLEAR     31  31 100 W5        29.89S
ST INIGOES     CLEAR     32  30  92 CALM      29.89S
LEONARDTOWN*   CLEAR     32  32 100 W3        29.90S

$$

MDZ003>005-181200-
NORTH CENTRAL MARYLAND

CITY           SKY/WX    TMP DP  RH WIND       PRES   REMARKS
FREDERICK*     CLOUDY    27  27 100 S3        29.90S
HAGERSTOWN APT CLOUDY    33  23  66 S6        29.85F
WESTMINSTER*   CLOUDY    34  27  75 CALM      29.83F

$$

MDZ501>502-181200-
WESTERN MARYLAND

CITY           SKY/WX    TMP DP  RH WIND       PRES   REMARKS
OAKLAND*       CLEAR     45  28  53 W14G21    29.87F
CUMBERLAND*    CLOUDY    28  28 100 CALM      29.90S

$$

VAZ025>031-181200-
SHENANDOAH VALLEY

CITY           SKY/WX    TMP DP  RH WIND       PRES   REMARKS
WINCHESTER*    CLOUDY    32  25  74 W5        29.86F
FRONT ROYAL*   CLOUDY    30  27  86 CALM      29.86S
LURAY*         CLEAR     32  30  93 S3        29.88S
NEW MARKET*    CLOUDY    29  24  81 SW3       29.88S
STAUNTON*      CLOUDY    28  25  88 CALM      29.92R
WAYNESBORO*    CLOUDY    51  26  38 SW8       29.90R

$$

WVZ021-048>050-054>055-181200-
EASTERN WEST VIRGINIA PANHANDLE

CITY           SKY/WX    TMP DP  RH WIND       PRES   REMARKS
MARTINSBURG    CLOUDY    27  21  78 CALM      29.86S
PETERSBURG*    CLEAR     35  31  85 E5        29.88R

$$

VAZ036>039-050-181200-
CENTRAL FOOTHILLS

CITY           SKY/WX    TMP DP  RH WIND       PRES   REMARKS
CHARLOTTESVILL CLOUDY    35  25  66 W3        29.90S
CULPEPER*      CLOUDY    28  25  87 CALM      29.91S
ORANGE*        CLOUDY    28  25  86 CALM      29.92S
GORDONSVILLE*  CLOUDY    30  26  84 CALM      29.90S
WARRENTON*     CLOUDY    26  21  82 CALM      29.90R

$$

VAZ055>057-181200-
NORTH AND CENTRAL PIEDMONT

CITY           SKY/WX    TMP DP  RH WIND       PRES   REMARKS
FREDERICKSBRG* CLEAR     32  30  93 CALM      29.90S
STAFFORD*      CLOUDY    28  27  96 CALM      29.95R

$$

NCZ024-NYZ072-PAZ021-071-VAZ022-071-181200-
OTHER REGIONAL OBSERVATIONS

CITY           SKY/WX    TMP DP  RH WIND       PRES   REMARKS
NEW YORK CITY  CLEAR     38  17  42 SW3       29.88F
PHILADELPHIA   CLEAR     30  24  78 E3        29.88F
PITTSBURGH     CLEAR     48  34  58 S6        29.81S
ROANOKE        CLEAR     51  28  41 SW6       29.97R
RICHMOND       CLOUDY    36  30  79 CALM      29.91R
RALEIGH        PTCLDY    39  33  79 SW6       29.96R

$$

ANZ530>537-181200-
MARINE OBSERVATIONS

STATION/POSITION TIME  TEMP    WIND        PRES
                       AIR SEA DIR/SP/G
                 (UTC) (F)     (DEG/KT/KT) (MB)
THOMAS PT LIGHT  1100   35 38  290/  3/  4   N/A
BALT KEY BRIDGE  1048   33     250/  3/  3 1011.5F
COVE POINT       1048   39     230/  2/  5 1012.5S
LEWISETTA        1048   38 40  270/  6/  7 1011.9S
SOLOMONS ISLAND  1042   36 41  320/  4/  5   N/A
PINEY POINT      1048          320/  5/  5   N/A

$$





USA.gov is the U.S. government's official web portal to all federal, state and local government web resources and services.